Location: Detroit
(42.3310°N, 83.0460°W)
Time: 06:05:09
(UTC-05:00)

S-56A Canister/Altair - Visible Passes

Search period start: 31 January 2023 00:00
Search period end: 10 February 2023 00:00
Orbit: 639 x 2493 km, 38.9° (Epoch: 30 January)

Date Brightness Start Highest point End Pass type
(mag) Time Alt. Az. Time Alt. Az. Time Alt. Az.
31 Jan 10.9 18:24:05 10° W 18:31:19 29° SSW 18:41:02 10° SSE visible
02 Feb 11.7 19:27:26 10° SW 19:29:41 11° SW 19:32:06 10° SSW visible
03 Feb 11.7 18:53:24 10° WSW 18:56:41 12° SW 19:00:22 10° SSW visible
04 Feb 11.6 18:19:56 10° WSW 18:23:44 13° SW 18:28:05 10° SSW visible
